Almeria, Spain

5:19 AM CEST on June 27, 2017 (GMT +0200)
Almeria

Weather History for LEAM - December, 2013

Change the Weather History Date:

Thursday, December 12, 2013

  Actual Average Record
Temperature  
Mean Temperature 60 °F -  
Max Temperature 68 °F 59 °F 69 °F (2015)
Min Temperature 51 °F 47 °F 42 °F (2005)
Degree Days  
Heating Degree Days 6    
Growing Degree Days 10 (Base 50)    
Moisture  
Dew Point 44 °F    
Average Humidity 57    
Maximum Humidity 82    
Minimum Humidity 30    
Precipitation  
Precipitation 0.00 in 0.03 in - ()
Sea Level Pressure  
Sea Level Pressure 30.35 in    
Wind  
Wind Speed 10 mph ()    
Max Wind Speed 16 mph    
Max Gust Speed 26 mph    
Visibility 7.4 miles    
Events      
Averages and records for this station are not official NWS values.
T = Trace of Precipitation, MM = Missing Value Source: Averaged Metar Reports

Daily Weather History Graph

Daily Weather History Graph

Search for Another Location

Airport or City:

Trip Planner

Search our weather history database for the weather conditions in past years. The results will help you decide how hot, cold, wet, or windy it might be!

Date:

Astronomy

Dec. 12, 2013 Rise Set
Actual Time 8:13 AM CET 5:53 PM CET
Civil Twilight 7:44 AM CET 6:22 PM CET
Nautical Twilight 7:11 AM CET 6:54 PM CET
Astronomical Twilight 6:40 AM CET 7:26 PM CET
Moon 2:47 PM CET (12/12) 3:26 AM CET (12/12)
Length of Visible Light 10h 38m
Length of Day
9h 40m
Waxing Gibbous, 78% of the Moon is Illuminated
Dec 12
Waxing Gibbous
Dec 17
Full
Dec 25
Last Quarter
Jan 1
New
Jan 8
First Quarter

Hourly Weather History & Observations

Time (CET) Temp. Dew Point Humidity Pressure Visibility Wind Dir Wind Speed Gust Speed Precip Events Conditions
12:00 AM 55 °F 47 °F 65% 30.43 in - NW 10.4 mph - -  
1:00 AM 55 °F 45 °F 61% 30.43 in - NNW 10.4 mph - -  
2:00 AM 55 °F 45 °F 59% 30.42 in - NNW 11.5 mph - -  
3:00 AM 54 °F 43 °F 58% 30.41 in - NW 11.5 mph - -  
5:00 AM 54 °F 42 °F 55% 30.39 in - NNW 13.8 mph - -  
5:00 AM 53.6 °F 42.8 °F 67% 30.36 in 6.2 mi NNW 12.7 mph 26.5 mph N/A   Partly Cloudy
5:30 AM 53.6 °F 41.0 °F 62% 30.36 in 6.2 mi NW 13.8 mph - N/A   Partly Cloudy
6:00 AM 54 °F 41 °F 51% 30.38 in - NW 15.0 mph - -  
6:00 AM 53.6 °F 41.0 °F 62% 30.36 in 6.2 mi NW 16.1 mph - N/A   Partly Cloudy
6:30 AM 53.6 °F 39.2 °F 58% 30.36 in 6.2 mi NW 13.8 mph - N/A   Partly Cloudy
7:00 AM 54 °F 40 °F 47% 30.38 in 19 mi NW 11.5 mph - -   Scattered Clouds
7:00 AM 53.6 °F 39.2 °F 58% 30.36 in 6.2 mi NW 13.8 mph 25.3 mph N/A   Partly Cloudy
7:30 AM 53.6 °F 39.2 °F 58% 30.36 in 6.2 mi NW 12.7 mph 25.3 mph N/A   Partly Cloudy
8:00 AM 53 °F 39 °F 48% 30.39 in - NW 13.8 mph - -  
8:00 AM 53.6 °F 39.2 °F 58% 30.39 in 6.2 mi NW 13.8 mph - N/A   Partly Cloudy
8:30 AM 51.8 °F 39.2 °F 62% 30.39 in 6.2 mi NNW 11.5 mph - N/A   Partly Cloudy
9:00 AM 53 °F 39 °F 47% 30.40 in - NNW 12.7 mph - -  
9:00 AM 53.6 °F 39.2 °F 58% 30.39 in 6.2 mi NNW 11.5 mph - N/A   Partly Cloudy
9:30 AM 55.4 °F 37.4 °F 51% 30.39 in 6.2 mi NNW 11.5 mph - N/A   Partly Cloudy
10:00 AM 57.2 °F 39.2 °F 51% 30.39 in 6.2 mi NNW 11.5 mph - N/A   Partly Cloudy
10:30 AM 57.2 °F 39.2 °F 51% 30.39 in 6.2 mi NNW 9.2 mph - N/A   Partly Cloudy
11:00 AM 58 °F 39 °F 38% 30.41 in - NW 9.2 mph - -  
11:00 AM 57.2 °F 39.2 °F 51% 30.39 in 6.2 mi NW 9.2 mph - N/A   Partly Cloudy
11:30 AM 62.6 °F 39.2 °F 42% 30.39 in 6.2 mi Variable 2.3 mph - N/A   Partly Cloudy
12:00 PM 65 °F 43 °F 33% 30.39 in - ENE 12.7 mph - -  
12:00 PM 64.4 °F 41.0 °F 42% 30.39 in 6.2 mi ENE 12.7 mph - N/A   Partly Cloudy
12:30 PM 64.4 °F 42.8 °F 45% 30.36 in 6.2 mi ENE 13.8 mph - N/A   Partly Cloudy
1:00 PM 65 °F 44 °F 34% 30.36 in 19 mi ENE 12.7 mph - -   Scattered Clouds
1:00 PM 64.4 °F 42.8 °F 45% 30.36 in 6.2 mi ENE 12.7 mph - N/A   Partly Cloudy
1:30 PM 66.2 °F 44.6 °F 46% 30.33 in 6.2 mi ENE 13.8 mph - N/A   Partly Cloudy
2:00 PM 68 °F 44 °F 30% 30.34 in - ENE 13.8 mph - -  
2:00 PM 66.2 °F 42.8 °F 43% 30.33 in 6.2 mi ENE 12.7 mph - N/A   Partly Cloudy
2:30 PM 68.0 °F 42.8 °F 40% 30.30 in 6.2 mi East 13.8 mph - N/A   Partly Cloudy
3:00 PM 68 °F 46 °F 34% 30.32 in - East 13.8 mph - -  
3:00 PM 66.2 °F 46.4 °F 49% 30.30 in 6.2 mi East 13.8 mph - N/A   Partly Cloudy
3:30 PM 64.4 °F 46.4 °F 52% 30.30 in 6.2 mi East 13.8 mph - N/A   Partly Cloudy
4:00 PM 64.4 °F 48.2 °F 56% 30.30 in 6.2 mi East 12.7 mph - N/A   Partly Cloudy
4:30 PM 64.4 °F 48.2 °F 56% 30.30 in 6.2 mi East 13.8 mph - N/A   Partly Cloudy
5:00 PM 65 °F 50 °F 47% 30.32 in - ENE 12.7 mph - -  
5:00 PM 64.4 °F 48.2 °F 56% 30.30 in 6.2 mi East 11.5 mph - N/A   Partly Cloudy
5:30 PM 62.6 °F 50.0 °F 63% 30.30 in 6.2 mi ENE 11.5 mph - N/A   Partly Cloudy
6:00 PM 61 °F 50 °F 57% 30.32 in - East 11.5 mph - -  
6:00 PM 60.8 °F 50.0 °F 68% 30.30 in 6.2 mi East 11.5 mph - N/A   Partly Cloudy
6:30 PM 59.0 °F 50.0 °F 72% 30.30 in 6.2 mi ENE 6.9 mph - N/A   Partly Cloudy
7:00 PM 58 °F 50 °F 68% 30.33 in 19 mi NE 11.5 mph - -   Clear
7:00 PM 59.0 °F 50.0 °F 72% 30.33 in - NE 10.4 mph - N/A   Clear
7:30 PM 57.2 °F 48.2 °F 72% 30.33 in - NNE 8.1 mph - N/A   Clear
8:00 PM 58 °F 49 °F 65% 30.34 in - North 4.6 mph - -  
8:00 PM 57.2 °F 50.0 °F 77% 30.33 in - North 5.8 mph - N/A   Clear
8:30 PM 57.2 °F 48.2 °F 72% 30.33 in - Variable 1.2 mph - N/A   Clear
9:00 PM 54 °F 49 °F 77% 30.35 in - NNW 3.5 mph - -  
9:00 PM 53.6 °F 48.2 °F 82% 30.33 in - Variable 2.3 mph - N/A   Clear
9:30 PM 55.4 °F 46.4 °F 72% 30.33 in - North 5.8 mph - N/A   Clear
10:00 PM 53.6 °F 46.4 °F 77% 30.33 in - North 3.5 mph - N/A   Clear
10:30 PM 53.6 °F 46.4 °F 77% 30.33 in - NNW 8.1 mph - N/A   Clear
11:00 PM 52 °F 46 °F 75% 30.36 in - NNW 4.6 mph - -